This is the latest recevied weather packets stored in our database for station/object VE3VGJ. If no packets are shown the sender has not sent any weather packets the latest 10 day(s).
| Time | Temp. | Humidity | Pressure | Rain* | Wind** | Luminosity | Snow |
|---|---|---|---|---|---|---|---|
| 1777461733 | 8.33° C | 86% | 1012.8 hPa | 0 mm | - | 69 W/m² | - |
| 1777461428 | 7.78° C | 86% | 1012.8 hPa | 0 mm | - | 53 W/m² | - |
| 1777461124 | 7.78° C | 87% | 1012.6 hPa | 0 mm | - | 51 W/m² | - |
| 1777460820 | 7.78° C | 88% | 1012.3 hPa | 0 mm | - | 47 W/m² | - |
| 1777460515 | 7.22° C | 89% | 1012.4 hPa | 0 mm | - | 39 W/m² | - |
| 1777460211 | 7.22° C | 89% | 1012.4 hPa | 0 mm | - | 32 W/m² | - |
| 1777459908 | 7.22° C | 90% | 1012.6 hPa | 0 mm | - | 24 W/m² | - |
| 1777459605 | 7.22° C | 90% | 1012.6 hPa | 0 mm | - | 22 W/m² | - |
| 1777459302 | 6.67° C | 90% | 1012.5 hPa | 0 mm | - | 20 W/m² | - |
| 1777459000 | 7.22° C | 90% | 1012.7 hPa | 0 mm | - | 17 W/m² | - |
| 1777458697 | 7.22° C | 90% | 1012.9 hPa | 0 mm | - | 15 W/m² | - |
| 1777458393 | 7.22° C | 90% | 1012.7 hPa | 0 mm | - | 11 W/m² | - |
| 1777458090 | 6.67° C | 90% | 1012.8 hPa | 0 mm | - | 7 W/m² | - |
| 1777457785 | 7.22° C | 89% | 1012.9 hPa | 0 mm | - | 5 W/m² | - |
| 1777457485 | 7.22° C | 89% | 1012.9 hPa | 0 mm | - | 3 W/m² | - |
| 1777457181 | 7.22° C | 88% | 1012.8 hPa | 0 mm | - | 2 W/m² | - |
| 1777456877 | 7.22° C | 87% | 1012.9 hPa | 0 mm | - | 1 W/m² | - |
| 1777456572 | 7.78° C | 87% | 1012.8 hPa | 0 mm | - | 0 W/m² | - |
| 1777456268 | 7.78° C | 86% | 1012.9 hPa | 0 mm | - | 0 W/m² | - |
| 1777455964 | 7.78° C | 86% | 1012.5 hPa | 0 mm | - | 0 W/m² | - |
| 1777455661 | 7.78° C | 86% | 1012.7 hPa | 0 mm | - | 0 W/m² | - |
| 1777455357 | 7.78° C | 86% | 1012.7 hPa | 0 mm | - | 0 W/m² | - |
| 1777455055 | 8.33° C | 85% | 1012.8 hPa | 0 mm | - | 0 W/m² | - |
| 1777454751 | 8.33° C | 85% | 1012.9 hPa | 0 mm | - | 0 W/m² | - |
| 1777454447 | 8.33° C | 84% | 1013.4 hPa | 0 mm | - | 0 W/m² | - |
* Rain latest hour (hover to see other rain measurements)
** Current wind speed in m/s (hover to see current wind gust speed)